User: anonymous   Login
Location: Irma
(52.9170°N, 111.2330°W)
Time: 05:14:29
(UTC-07:00)
Language:

deb Chang Zheng 4 - Orbit

View from above orbital plane
View from above orbital plane
View from above satellite
View from above satellite

Ground track
Ground track

The orbit data is extracted from the following two-line orbital elements,

1 20847U 90081K   15024.16500838  .00006168  00000-0  10062-2 0  2986
2 20847 098.5785 203.6011 0020709 323.5782 168.0633 14.71190273276621
Epoch (UTC): 24 January 2015 03:57:36
Eccentricity: 0.0020709
inclination: 98.5785°
perigee height: 643 km
apogee height: 672 km
right ascension of ascending node: 203.6011°
argument of perigee: 323.5782°
revolutions per day: 14.71190273
mean anomaly at epoch: 168.0633°
orbit number at epoch: 27662

The dashed part of the orbit path shows where the satellite is in the earth's shadow,  

DLR